TimeCDT,TemperatureF,Dew PointF,Humidity,Sea Level PressureIn,VisibilityMPH,Wind Direction,Wind SpeedMPH,Gust SpeedMPH,PrecipitationIn,Events,Conditions,WindDirDegrees,DateUTC
12:54 AM,50.0,46.0,86,30.33,10.0,Calm,Calm,-,N/A,,Clear,0,2013-05-25 05:54:00
1:54 AM,48.9,44.1,83,30.31,10.0,ENE,3.5,-,N/A,,Clear,70,2013-05-25 06:54:00
2:54 AM,46.9,44.1,90,30.31,10.0,Calm,Calm,-,N/A,,Clear,0,2013-05-25 07:54:00
3:54 AM,46.9,43.0,86,30.30,10.0,Calm,Calm,-,N/A,,Clear,0,2013-05-25 08:54:00
4:54 AM,45.0,42.1,90,30.30,10.0,North,3.5,-,N/A,,Clear,10,2013-05-25 09:54:00
5:54 AM,46.0,43.0,89,30.32,10.0,Calm,Calm,-,N/A,,Clear,0,2013-05-25 10:54:00
6:54 AM,50.0,45.0,83,30.33,10.0,Calm,Calm,-,N/A,,Clear,0,2013-05-25 11:54:00
7:54 AM,53.1,48.0,83,30.36,10.0,Calm,Calm,-,N/A,,Clear,0,2013-05-25 12:54:00
8:54 AM,62.1,48.0,60,30.38,10.0,Calm,Calm,-,N/A,,Clear,0,2013-05-25 13:54:00
9:54 AM,66.0,44.1,45,30.37,10.0,Calm,Calm,-,N/A,,Clear,0,2013-05-25 14:54:00
10:54 AM,68.0,42.1,39,30.34,10.0,Variable,3.5,-,N/A,,Clear,0,2013-05-25 15:54:00
11:54 AM,69.1,41.0,36,30.35,10.0,SE,3.5,-,N/A,,Clear,140,2013-05-25 16:54:00
12:54 PM,73.0,42.1,33,30.34,10.0,Calm,Calm,-,N/A,,Clear,0,2013-05-25 17:54:00
1:54 PM,73.0,42.1,33,30.31,10.0,Calm,Calm,-,N/A,,Clear,0,2013-05-25 18:54:00
2:54 PM,73.0,45.0,37,30.30,10.0,Calm,Calm,-,N/A,,Mostly Cloudy,0,2013-05-25 19:54:00
3:54 PM,73.0,43.0,34,30.27,10.0,NE,3.5,-,N/A,,Mostly Cloudy,50,2013-05-25 20:54:00
4:54 PM,73.0,44.1,35,30.25,10.0,ENE,5.8,-,N/A,,Mostly Cloudy,60,2013-05-25 21:54:00
5:54 PM,72.0,43.0,35,30.20,10.0,SE,6.9,-,N/A,,Clear,140,2013-05-25 22:54:00
6:54 PM,70.0,43.0,38,30.18,10.0,SSE,3.5,-,N/A,,Partly Cloudy,160,2013-05-25 23:54:00
7:54 PM,66.9,48.0,51,30.19,10.0,ENE,3.5,-,N/A,,Mostly Cloudy,60,2013-05-26 00:54:00
8:54 PM,64.9,50.0,58,30.21,10.0,NE,8.1,-,N/A,,Overcast,50,2013-05-26 01:54:00
9:54 PM,64.0,48.9,58,30.22,10.0,ENE,9.2,-,N/A,,Overcast,60,2013-05-26 02:54:00
10:54 PM,62.1,48.0,60,30.24,10.0,ENE,9.2,-,0.00,Rain,Light Rain,70,2013-05-26 03:54:00
11:54 PM,62.1,46.0,56,30.23,10.0,ENE,8.1,-,0.00,,Overcast,70,2013-05-26 04:54:00